W4SNA-3 Weather Reports


Display with metric or nautical units.
time (UTC)temp
F
wind
direction
speed
MPH
gust
MPH
rain 1hr
in
rain 24hr
in
rain mn
in
humidity
%
barometer
mb
20260903160025 89 0 0.0 2.0 0.00 0.00 0.00 61 1021.2
20260903155517 89 68 1.0 5.0 0.00 0.00 0.00 58 1021.3
20260903155014 89 0 0.0 6.0 0.00 0.00 0.00 59 1021.3
20260903154508 89 0 0.0 6.0 0.00 0.00 0.00 59 1021.3
20260903154008 89 77 2.0 5.0 0.00 0.00 0.00 60 1021.3
20260903153508 89 32 1.0 4.0 0.00 0.00 0.00 61 1021.3
20260903153008 89 33 1.0 4.0 0.00 0.00 0.00 63 1021.3
20260903152314 89 116 1.0 4.0 0.00 0.00 0.00 62 1021.2
20260903151824 88 67 1.0 4.0 0.00 0.00 0.00 65 1021.3
20260903151314 88 0 0.0 4.0 0.00 0.00 0.00 65 1021.2
20260903150814 88 0 0.0 5.0 0.00 0.00 0.00 66 1021.3
20260903150314 88 0 0.0 5.0 0.00 0.00 0.00 65 1021.3
20260903145846 88 84 1.0 3.0 0.00 0.00 0.00 64 1021.3
20260903145249 88 0 0.0 3.0 0.00 0.00 0.00 63 1021.4
20260903144800 88 0 0.0 3.0 0.00 0.00 0.00 65 1021.4
20260903144250 87 0 0.0 3.0 0.00 0.00 0.00 66 1021.4
20260903143800 87 0 0.0 2.0 0.00 0.00 0.00 67 1021.4
20260903143249 86 100 1.0 4.0 0.00 0.00 0.00 66 1021.4
20260903142749 86 105 1.0 5.0 0.00 0.00 0.00 67 1021.2
20260903142249 85 54 2.0 6.0 0.00 0.00 0.00 66 1021.2
20260903141814 85 0 0.0 6.0 0.00 0.00 0.00 68 1021.2
20260903141249 85 73 1.0 5.0 0.00 0.00 0.00 67 1021.1
20260903140751 84 0 0.0 7.0 0.00 0.00 0.00 69 1021.0
20260903140250 84 63 1.0 7.0 0.00 0.00 0.00 68 1021.0
20260903135749 84 51 1.0 4.0 0.00 0.00 0.00 68 1021.0
20260903135103 84 40 1.0 3.0 0.00 0.00 0.00 69 1020.9
20260903134603 83 0 0.0 3.0 0.00 0.00 0.00 70 1021.0
20260903134105 83 0 0.0 2.0 0.00 0.00 0.00 72 1021.1
20260903133603 82 0 0.0 2.0 0.00 0.00 0.00 73 1021.1
20260903133108 82 0 0.0 2.0 0.00 0.00 0.00 72 1021.0
20260903132158 81 77 1.0 6.0 0.00 0.00 0.00 73 1020.9
20260903131656 80 9 1.0 4.0 0.00 0.00 0.00 73 1021.0
20260903131157 80 342 1.0 3.0 0.00 0.00 0.00 74 1021.1
20260903130704 80 8 2.0 3.0 0.00 0.00 0.00 74 1021.0
20260903130018 79 10 2.0 5.0 0.00 0.00 0.00 75 1021.0
20260903125526 79 32 2.0 5.0 0.00 0.00 0.00 75 1021.0
20260903125018 78 359 1.0 7.0 0.00 0.00 0.00 76 1020.9
20260903124519 78 40 2.0 7.0 0.00 0.00 0.00 76 1021.1
20260903124025 77 359 1.0 4.0 0.00 0.00 0.00 77 1021.0
20260903123524 77 4 1.0 4.0 0.00 0.00 0.00 78 1020.9
20260903123018 76 45 1.0 4.0 0.00 0.00 0.00 78 1021.0
20260903122520 76 22 1.0 4.0 0.00 0.00 0.00 79 1021.1
20260903122018 75 4 1.0 4.0 0.00 0.00 0.00 80 1021.1
20260903121521 74 4 1.0 3.0 0.00 0.00 0.00 81 1021.0
20260903121018 74 33 1.0 3.0 0.00 0.00 0.00 82 1021.0
20260903120519 73 26 1.0 3.0 0.00 0.00 0.00 83 1021.0
20260903120026 72 26 1.0 3.0 0.00 0.00 0.00 84 1020.9
20260903115536 72 26 1.0 3.0 0.00 0.00 0.00 84 1020.9
20260903115018 72 28 1.0 3.0 0.00 0.00 0.00 85 1020.9
20260903114518 72 28 1.0 3.0 0.00 0.00 0.00 85 1020.8
20260903114018 71 33 1.0 4.0 0.00 0.00 0.00 84 1020.9
20260903113523 71 43 1.0 5.0 0.00 0.00 0.00 85 1020.8
20260903113021 71 72 1.0 5.0 0.00 0.00 0.00 85 1020.8
20260903112518 71 331 1.0 3.0 0.00 0.00 0.00 85 1020.8
20260903112018 71 331 1.0 3.0 0.00 0.00 0.00 85 1020.7
20260903111521 71 331 1.0 3.0 0.00 0.00 0.00 86 1020.6
20260903111018 71 331 1.0 3.0 0.00 0.00 0.00 86 1020.7
20260903110519 71 331 1.0 3.0 0.00 0.00 0.00 86 1020.7
20260903110027 71 331 1.0 3.0 0.00 0.00 0.00 86 1020.5
20260903105536 71 331 1.0 3.0 0.00 0.00 0.00 86 1020.4
20260903104824 71 331 1.0 3.0 0.00 0.00 0.00 86 1020.3
20260903104318 71 331 1.0 3.0 0.00 0.00 0.00 86 1020.2
20260903103817 71 331 1.0 3.0 0.00 0.00 0.00 86 1020.2
20260903103317 71 331 1.0 3.0 0.00 0.00 0.00 86 1020.1
20260903102818 71 331 1.0 3.0 0.00 0.00 0.00 87 1020.2
20260903102317 71 331 1.0 3.0 0.00 0.00 0.00 87 1020.2
20260903101828 71 331 1.0 3.0 0.00 0.00 0.00 87 1020.0
20260903101343 71 331 1.0 3.0 0.00 0.00 0.00 87 1020.1
20260903100819 71 331 1.0 3.0 0.00 0.00 0.00 87 1020.2
20260903100317 71 331 1.0 3.0 0.00 0.00 0.00 87 1020.1
20260903095817 71 331 1.0 3.0 0.00 0.00 0.00 87 1020.1
20260903094907 71 331 1.0 3.0 0.00 0.00 0.00 87 1020.1
20260903094407 71 331 1.0 3.0 0.00 0.00 0.00 87 1020.1
20260903093557 71 331 1.0 3.0 0.00 0.00 0.00 87 1020.2
20260903093038 71 331 2.0 3.0 0.00 0.00 0.00 86 1020.2
20260903092543 71 331 1.0 4.0 0.00 0.00 0.00 86 1020.1
20260903092036 71 331 1.0 4.0 0.00 0.00 0.00 86 1020.1
20260903091536 71 332 1.0 3.0 0.00 0.00 0.00 86 1020.2
20260903091036 71 333 1.0 4.0 0.00 0.00 0.00 86 1020.1
20260903090548 71 335 1.0 4.0 0.00 0.00 0.00 86 1020.1
20260903090042 71 338 1.0 3.0 0.00 0.00 0.00 86 1020.1
20260903085550 71 338 1.0 3.0 0.00 0.00 0.00 86 1020.1
20260903085040 71 338 1.0 3.0 0.00 0.00 0.00 86 1020.0
20260903084511 71 339 1.0 3.0 0.00 0.00 0.00 87 1019.9
20260903084011 71 339 1.0 3.0 0.00 0.00 0.00 87 1020.0
20260903083511 71 339 1.0 3.0 0.00 0.00 0.00 87 1020.0
20260903083011 71 339 1.0 3.0 0.00 0.00 0.00 87 1020.1
20260903082534 71 339 1.0 3.0 0.00 0.00 0.00 86 1019.9
20260903082012 71 339 1.0 3.0 0.00 0.00 0.00 86 1019.9
20260903081525 71 339 1.0 3.0 0.00 0.00 0.00 86 1020.0
20260903081016 71 339 2.0 4.0 0.00 0.00 0.00 85 1020.0
20260903080536 72 340 1.0 4.0 0.00 0.00 0.00 85 1019.9
20260903080011 72 340 1.0 3.0 0.00 0.00 0.00 85 1020.0
20260903075517 72 340 1.0 4.0 0.00 0.00 0.00 85 1020.0
20260903075019 72 342 2.0 4.0 0.00 0.00 0.00 85 1019.8
20260903074537 72 342 2.0 3.0 0.00 0.00 0.00 85 1019.8
20260903073214 72 348 1.0 3.0 0.00 0.00 0.00 86 1019.8
20260903072543 72 348 1.0 4.0 0.00 0.00 0.00 86 1019.8
20260903072043 72 355 1.0 3.0 0.00 0.00 0.00 86 1019.8
20260903071542 72 355 1.0 4.0 0.00 0.00 0.00 85 1019.8
20260903071045 72 9 2.0 4.0 0.00 0.00 0.00 85 1019.8
20260903070542 72 36 2.0 3.0 0.00 0.00 0.00 85 1019.8
20260903070100 72 47 1.0 3.0 0.00 0.00 0.00 85 1019.9
20260903065542 72 49 1.0 3.0 0.00 0.00 0.00 85 1020.0
20260903065042 72 49 1.0 3.0 0.00 0.00 0.00 84 1019.9
20260903064609 72 49 1.0 3.0 0.00 0.00 0.00 84 1020.0
20260903064042 72 49 1.0 3.0 0.00 0.00 0.00 84 1020.0
20260903063542 72 49 1.0 3.0 0.00 0.00 0.00 84 1020.0
20260903063106 72 0 0.0 3.0 0.00 0.00 0.00 84 1020.0
20260903062544 72 0 0.0 3.0 0.00 0.00 0.00 84 1020.1
20260903062042 72 0 0.0 3.0 0.00 0.00 0.00 84 1020.1
20260903061542 72 0 0.0 3.0 0.00 0.00 0.00 84 1020.2
20260903061046 72 49 1.0 3.0 0.00 0.00 0.00 85 1020.2
20260903060544 72 49 1.0 3.0 0.00 0.00 0.00 85 1020.3
20260903060050 72 50 1.0 3.0 0.00 0.00 0.00 84 1020.3
20260903055542 72 50 1.0 3.0 0.00 0.00 0.00 84 1020.2
20260903055101 72 50 1.0 3.0 0.00 0.00 0.00 85 1020.4
20260903054542 72 50 1.0 3.0 0.00 0.00 0.00 85 1020.3
20260903054042 73 50 1.0 3.0 0.00 0.00 0.00 84 1020.4
20260903053542 73 50 1.0 3.0 0.00 0.00 0.00 84 1020.4
20260903053050 73 51 1.0 3.0 0.00 0.00 0.00 84 1020.4
20260903052544 73 51 1.0 3.0 0.00 0.00 0.00 84 1020.3
20260903052042 73 52 1.0 3.0 0.00 0.00 0.00 84 1020.4
20260903051542 73 53 1.0 3.0 0.00 0.00 0.00 84 1020.4
20260903051100 73 69 1.0 3.0 0.00 0.00 0.00 83 1020.4
20260903050542 73 85 1.0 3.0 0.00 0.00 0.00 83 1020.3
20260903050048 74 89 1.0 3.0 0.00 0.00 0.00 82 1020.4
20260903045542 74 90 1.0 3.0 0.00 0.00 0.00 81 1020.4
20260903044935 74 90 1.0 3.0 0.00 0.00 0.00 80 1020.6
20260903044435 74 90 1.0 3.0 0.00 0.00 0.00 80 1020.6
20260903043935 74 0 0.0 2.0 0.00 0.00 0.00 79 1020.6
20260903043438 74 0 0.0 0.0 0.00 0.00 0.00 78 1020.7
20260903042935 74 0 0.0 0.0 0.00 0.00 0.00 78 1020.7
20260903042436 74 0 0.0 0.0 0.00 0.00 0.00 79 1020.7
20260903041935 74 0 0.0 0.0 0.00 0.00 0.00 79 1020.8
20260903041435 74 0 0.0 0.0 0.00 0.00 0.00 79 1020.9
20260903040946 74 0 0.0 0.0 0.00 0.00 0.00 79 1020.9
20260903040500 74 0 0.0 0.0 0.00 0.00 0.00 78 1021.0
20260903035935 74 0 0.0 0.0 0.00 0.00 0.00 78 1021.0
20260903035441 74 0 0.0 0.0 0.00 0.00 0.00 78 1021.1
20260903034935 74 0 0.0 0.0 0.00 0.00 0.00 78 1021.2
20260903034005 74 0 0.0 0.0 0.00 0.00 0.00 78 1021.1
20260903033505 74 0 0.0 0.0 0.00 0.00 0.00 78 1021.1
20260903033005 74 0 0.0 0.0 0.00 0.00 0.00 78 1021.2
20260903032505 74 0 0.0 0.0 0.00 0.00 0.00 78 1021.2
20260903032005 74 0 0.0 0.0 0.00 0.00 0.00 78 1021.3
20260903031505 75 0 0.0 0.0 0.00 0.00 0.00 78 1021.3
20260903031005 75 0 0.0 0.0 0.00 0.00 0.00 78 1021.3
20260903030505 75 0 0.0 0.0 0.00 0.00 0.00 78 1021.2
20260903030005 75 0 0.0 0.0 0.00 0.00 0.00 78 1021.2
20260903025505 75 0 0.0 0.0 0.00 0.00 0.00 78 1021.3
20260903025005 75 0 0.0 0.0 0.00 0.00 0.00 78 1021.3
20260903024505 75 0 0.0 0.0 0.00 0.00 0.00 78 1021.4
20260903024018 75 0 0.0 0.0 0.00 0.00 0.00 78 1021.5
20260903023505 75 0 0.0 0.0 0.00 0.00 0.00 78 1021.5
20260903023005 75 0 0.0 0.0 0.00 0.00 0.00 78 1021.6
20260903022505 75 0 0.0 0.0 0.00 0.00 0.00 78 1021.6
20260903022008 75 0 0.0 0.0 0.00 0.00 0.00 78 1021.7
20260903021505 75 0 0.0 0.0 0.00 0.00 0.00 78 1021.8
20260903021018 74 0 0.0 0.0 0.00 0.00 0.00 78 1021.7
20260903020505 74 0 0.0 0.0 0.00 0.00 0.00 78 1021.7
20260903020013 74 0 0.0 0.0 0.00 0.00 0.00 79 1021.6
20260903015210 74 0 0.0 0.0 0.00 0.00 0.00 78 1021.7
20260903014721 74 0 0.0 0.0 0.00 0.00 0.00 79 1021.6
20260903014210 74 0 0.0 0.0 0.00 0.00 0.00 78 1021.6
20260903013710 74 0 0.0 0.0 0.00 0.00 0.00 78 1021.5
20260903013210 75 0 0.0 0.0 0.00 0.00 0.00 79 1021.5
20260903012710 75 0 0.0 0.0 0.00 0.00 0.00 79 1021.4
20260903012210 75 0 0.0 0.0 0.00 0.00 0.00 79 1021.4
20260903011710 75 0 0.0 0.0 0.00 0.00 0.00 79 1021.3
20260903011221 75 0 0.0 0.0 0.00 0.00 0.00 78 1021.4
20260903010710 75 0 0.0 0.0 0.00 0.00 0.00 77 1021.4
20260903010210 75 0 0.0 0.0 0.00 0.00 0.00 77 1021.4
20260903005710 75 0 0.0 0.0 0.00 0.00 0.00 77 1021.3
20260903005211 75 0 0.0 0.0 0.00 0.00 0.00 77 1021.2
20260903004710 76 0 0.0 0.0 0.00 0.00 0.00 77 1021.3
20260903004210 76 0 0.0 0.0 0.00 0.00 0.00 76 1021.2
20260903003721 76 0 0.0 0.0 0.00 0.00 0.00 76 1021.1
20260903002734 76 0 0.0 0.0 0.00 0.00 0.00 76 1021.0
20260903002234 76 0 0.0 0.0 0.00 0.00 0.00 75 1021.0
20260903001734 77 0 0.0 0.0 0.00 0.00 0.00 75 1021.0
20260903001234 77 0 0.0 0.0 0.00 0.00 0.00 75 1020.9
20260903000734 77 0 0.0 0.0 0.00 0.00 0.00 74 1020.9
20260903000234 77 0 0.0 0.0 0.00 0.00 0.00 74 1020.8
20260902235734 78 0 0.0 0.0 0.00 0.00 0.00 74 1020.8
20260902235234 78 0 0.0 0.0 0.00 0.00 0.00 73 1020.8
20260902234734 78 0 0.0 0.0 0.00 0.00 0.00 73 1020.8
20260902234239 78 0 0.0 0.0 0.00 0.00 0.00 73 1020.7
20260902233745 79 0 0.0 0.0 0.00 0.00 0.00 73 1020.8
20260902233239 79 0 0.0 0.0 0.00 0.00 0.00 73 1020.8
20260902232734 79 0 0.0 0.0 0.00 0.00 0.00 72 1020.8
20260902232234 79 0 0.0 0.0 0.00 0.00 0.00 71 1020.9
20260902231738 79 0 0.0 0.0 0.00 0.00 0.00 72 1020.8
20260902231234 79 0 0.0 0.0 0.00 0.00 0.00 71 1020.7
20260902230734 80 0 0.0 0.0 0.00 0.00 0.00 71 1020.7
20260902230234 80 0 0.0 0.0 0.00 0.00 0.00 71 1020.6
20260902225735 80 0 0.0 0.0 0.00 0.00 0.00 72 1020.7
20260902225234 81 0 0.0 0.0 0.00 0.00 0.00 72 1020.7
20260902224447 81 0 0.0 0.0 0.00 0.00 0.00 71 1020.7
20260902223947 81 0 0.0 0.0 0.00 0.00 0.00 70 1020.7
20260902223447 81 0 0.0 0.0 0.00 0.00 0.00 70 1020.8
20260902222947 82 0 0.0 0.0 0.00 0.00 0.00 70 1020.7
20260902222447 82 0 0.0 0.0 0.00 0.00 0.00 70 1020.8
20260902221613 82 0 0.0 0.0 0.00 0.00 0.00 69 1020.7
20260902221052 83 0 0.0 0.0 0.00 0.00 0.00 68 1020.7
20260902220613 83 0 0.0 0.0 0.00 0.00 0.00 66 1020.8
20260902220052 83 0 0.0 0.0 0.00 0.00 0.00 67 1020.8
20260902215552 84 0 0.0 0.0 0.00 0.00 0.00 68 1020.9
20260902215053 84 0 0.0 0.0 0.00 0.00 0.00 67 1020.9
20260902214552 84 0 0.0 0.0 0.00 0.00 0.00 67 1020.9
20260902214052 84 0 0.0 2.0 0.00 0.00 0.00 64 1020.9
20260902213553 85 0 0.0 2.0 0.00 0.00 0.00 62 1020.9
20260902213052 85 0 0.0 1.0 0.00 0.00 0.00 62 1020.9
20260902212611 86 0 0.0 0.0 0.00 0.00 0.00 64 1020.8
20260902212052 86 0 0.0 0.0 0.00 0.00 0.00 62 1020.9
20260902211552 86 0 0.0 0.0 0.00 0.00 0.00 63 1020.8
20260902211052 87 0 0.0 0.0 0.00 0.00 0.00 62 1020.7
20260902210606 87 0 0.0 0.0 0.00 0.00 0.00 63 1020.8
20260902210052 87 0 0.0 0.0 0.00 0.00 0.00 62 1020.7
20260902205552 87 0 0.0 0.0 0.00 0.00 0.00 64 1020.7
20260902205055 87 0 0.0 2.0 0.00 0.00 0.00 63 1020.7
20260902204552 87 0 0.0 2.0 0.00 0.00 0.00 62 1020.7
20260902204052 87 0 0.0 2.0 0.00 0.00 0.00 61 1020.7
20260902203209 87 0 0.0 3.0 0.00 0.00 0.00 60 1020.6
20260902202706 87 0 0.0 2.0 0.00 0.00 0.00 59 1020.7
20260902202206 87 0 0.0 2.0 0.00 0.00 0.00 58 1020.7
20260902201706 87 0 0.0 3.0 0.00 0.00 0.00 59 1020.6
20260902201206 87 90 1.0 3.0 0.00 0.00 0.00 62 1020.8
20260902200706 87 0 0.0 2.0 0.00 0.00 0.00 62 1020.9
20260902195717 87 0 0.0 2.0 0.00 0.00 0.00 62 1021.0
20260902195217 87 0 0.0 2.0 0.00 0.00 0.00 62 1021.2
20260902194718 88 0 0.0 2.0 0.00 0.00 0.00 59 1021.2
20260902194217 89 0 0.0 2.0 0.00 0.00 0.00 61 1021.3
20260902193717 88 0 0.0 3.0 0.00 0.00 0.00 60 1021.4
20260902193219 88 0 0.0 3.0 0.00 0.00 0.00 58 1021.4
20260902192717 89 0 0.0 2.0 0.00 0.00 0.00 57 1021.4
20260902192217 88 0 0.0 2.0 0.00 0.00 0.00 61 1021.4
20260902191722 89 0 0.0 2.0 0.00 0.00 0.00 58 1021.5
20260902191217 89 0 0.0 2.0 0.00 0.00 0.00 55 1021.6
20260902190717 89 0 0.0 2.0 0.00 0.00 0.00 55 1021.6
20260902190217 88 0 0.0 2.0 0.00 0.00 0.00 59 1021.5
20260902185717 88 89 1.0 2.0 0.00 0.00 0.00 61 1021.6
20260902185223 87 0 0.0 2.0 0.00 0.00 0.00 57 1021.6
20260902184717 88 0 0.0 2.0 0.00 0.00 0.00 63 1021.5
20260902184217 87 0 0.0 2.0 0.00 0.00 0.00 63 1021.6
20260902183717 87 0 0.0 2.0 0.00 0.00 0.00 64 1021.5
20260902183217 87 0 0.0 2.0 0.00 0.00 0.00 66 1021.7
20260902182717 87 0 0.0 2.0 0.00 0.00 0.00 63 1021.7
20260902182223 88 0 0.0 6.0 0.00 0.00 0.00 60 1021.7
20260902181717 88 0 0.0 6.0 0.00 0.00 0.00 62 1021.6
20260902181217 89 0 0.0 1.0 0.00 0.00 0.00 63 1021.6
20260902180722 88 0 0.0 2.0 0.00 0.00 0.00 63 1021.6
20260902180218 88 0 0.0 2.0 0.00 0.00 0.00 58 1021.7
20260902175717 89 0 0.0 2.0 0.00 0.00 0.00 60 1021.7
20260902175217 89 0 0.0 2.0 0.00 0.00 0.00 58 1021.8
20260902174717 89 0 0.0 2.0 0.00 0.00 0.00 59 1021.7
20260902174217 90 0 0.0 3.0 0.00 0.00 0.00 61 1021.8
20260902173717 89 0 0.0 3.0 0.00 0.00 0.00 58 1021.8
20260902173218 90 0 0.0 1.0 0.00 0.00 0.00 61 1021.9
20260902172717 90 0 0.0 2.0 0.00 0.00 0.00 64 1021.9
20260902172220 90 0 0.0 4.0 0.00 0.00 0.00 63 1022.0
20260902171717 90 235 1.0 4.0 0.00 0.00 0.00 59 1021.9
20260902171217 89 0 0.0 2.0 0.00 0.00 0.00 63 1022.0
20260902170717 89 0 0.0 3.0 0.00 0.00 0.00 60 1022.1
20260902170217 90 0 0.0 3.0 0.00 0.00 0.00 60 1022.2
20260902165717 90 0 0.0 1.0 0.00 0.00 0.00 62 1022.3
20260902165217 90 0 0.0 2.0 0.00 0.00 0.00 59 1022.2
20260902164717 90 0 0.0 2.0 0.00 0.00 0.00 60 1022.2
20260902164219 89 128 1.0 2.0 0.00 0.00 0.00 58 1022.3
20260902163720 89 0 0.0 2.0 0.00 0.00 0.00 60 1022.4
20260902163224 90 0 0.0 2.0 0.00 0.00 0.00 60 1022.3
20260902162717 90 0 0.0 2.0 0.00 0.00 0.00 58 1022.3
20260902162219 90 0 0.0 2.0 0.00 0.00 0.00 60 1022.6
20260902161717 90 0 0.0 2.0 0.00 0.00 0.00 60 1022.6
20260902161217 89 0 0.0 3.0 0.00 0.00 0.00 60 1022.6
20260902160717 89 0 0.0 3.0 0.00 0.00 0.00 57 1022.8